Weather History for KTTF - August, 2014

Change the Weather History Date:

Thursday, August 21, 2014

  Actual Average Record
Temperature  
Mean Temperature 72 °F -  
Max Temperature 82 °F 80 °F 96 °F (1955)
Min Temperature 62 °F 59 °F 45 °F (1950)
Cooling Degree Days 7    
Growing Degree Days 22 (Base 50)    
Moisture  
Dew Point 68 °F    
Average Humidity 85    
Maximum Humidity 100    
Minimum Humidity 66    
Precipitation  
Precipitation 0.00 in - - ()
Sea Level Pressure  
Sea Level Pressure 29.96 in    
Wind  
Wind Speed 1 mph (SW)    
Max Wind Speed 13 mph    
Max Gust Speed -    
Visibility 8 miles    
Events Fog , Rain    
Averages and records for this station are not official NWS values.
T = Trace of Precipitation, MM = Missing Value Source: NWS Daily Summary

Daily Weather History Graph

Daily Weather History Graph

Search for Another Location

Airport or City:

Trip Planner

Search our weather history database for the weather conditions in past years. The results will help you decide how hot, cold, wet, or windy it might be!

Date:

Astronomy

Aug. 21, 2014 Rise Set
Actual Time 6:47 AM EDT 8:24 PM EDT
Civil Twilight 6:18 AM EDT 8:54 PM EDT
Nautical Twilight 5:42 AM EDT 9:29 PM EDT
Astronomical Twilight 5:04 AM EDT 10:07 PM EDT
Moon 3:15 AM EDT (8/21) 5:54 PM EDT (8/21)
Length of Visible Light 14h 35m
Length of Day
13h 37m
Waning Crescent, 13% of the Moon is Illuminated
Aug 21
Waning Crescent
Aug 25
New
Sep 2
First Quarter
Sep 8
Full
Sep 15
Last Quarter

Hourly Weather History & Observations

Time (EDT) Temp. Heat Index Dew Point Humidity Pressure Visibility Wind Dir Wind Speed Gust Speed Precip Events Conditions
12:11 AM 66.2 °F - 64.4 °F 94% 29.95 in 10.0 mi Calm Calm - N/A   Scattered Clouds
12:31 AM 66.2 °F - 64.4 °F 94% 29.95 in 10.0 mi Calm Calm - N/A   Scattered Clouds
12:51 AM 66.2 °F - 64.4 °F 94% 29.96 in 10.0 mi Calm Calm - N/A   Scattered Clouds
1:12 AM 64.4 °F - 62.6 °F 94% 29.96 in 10.0 mi Calm Calm - N/A   Scattered Clouds
1:32 AM 64.4 °F - 62.6 °F 94% 29.96 in 7.0 mi Calm Calm - N/A   Scattered Clouds
1:52 AM 66.2 °F - 64.4 °F 94% 29.95 in 7.0 mi Calm Calm - N/A   Mostly Cloudy
2:12 AM 66.2 °F - 64.4 °F 94% 29.95 in 10.0 mi Calm Calm - N/A   Overcast
2:32 AM 66.2 °F - 64.4 °F 94% 29.95 in 10.0 mi Calm Calm - N/A Rain Light Rain
2:52 AM 68.0 °F - 66.2 °F 94% 29.95 in 10.0 mi West 3.5 mph - N/A   Overcast
3:12 AM 68.0 °F - 64.4 °F 88% 29.94 in 10.0 mi Calm Calm - N/A   Mostly Cloudy
3:32 AM 66.2 °F - 64.4 °F 94% 29.94 in 10.0 mi Calm Calm - N/A   Mostly Cloudy
3:52 AM 66.2 °F - 64.4 °F 94% 29.94 in 2.5 mi Calm Calm - N/A Rain Light Rain
4:12 AM 66.2 °F - 64.4 °F 94% 29.94 in 7.0 mi Calm Calm - N/A   Mostly Cloudy
4:33 AM 66.2 °F - 64.4 °F 94% 29.94 in 4.0 mi Calm Calm - N/A   Scattered Clouds
4:50 AM 66.2 °F - 64.4 °F 94% 29.94 in 3.0 mi Calm Calm - N/A   Clear
5:12 AM 64.4 °F - 62.6 °F 94% 29.94 in 1.0 mi Calm Calm - N/A   Mostly Cloudy
5:32 AM 64.4 °F - 62.6 °F 94% 29.94 in 0.5 mi Calm Calm - N/A Fog Fog
5:52 AM 64.4 °F - 62.6 °F 94% 29.95 in 0.2 mi Calm Calm - N/A Fog Fog
6:12 AM 64.4 °F - 62.6 °F 94% 29.95 in 0.5 mi Calm Calm - N/A Fog Fog
6:32 AM 64.4 °F - 62.6 °F 94% 29.95 in 1.0 mi Calm Calm - N/A   Mist
6:53 AM 62.6 °F - 62.6 °F 100% 29.96 in 0.2 mi Calm Calm - N/A Fog Fog
7:13 AM 64.4 °F - 62.6 °F 94% 29.96 in 0.2 mi Calm Calm - N/A Fog Fog
7:33 AM 64.4 °F - 62.6 °F 94% 29.96 in 1.0 mi Calm Calm - N/A   Mist
7:53 AM 66.2 °F - 64.4 °F 94% 29.96 in 4.0 mi Calm Calm - N/A   Clear
8:13 AM 66.2 °F - 66.2 °F 100% 29.96 in 5.0 mi Calm Calm - N/A   Clear
8:33 AM 68.0 °F - 66.2 °F 94% 29.96 in 7.0 mi Calm Calm - N/A   Clear
8:53 AM 69.8 °F - 66.2 °F 88% 29.97 in 7.0 mi Calm Calm - N/A   Clear
9:11 AM 69.8 °F - 66.2 °F 88% 29.97 in 7.0 mi Calm Calm - N/A   Clear
9:33 AM 71.6 °F - 68.0 °F 88% 29.97 in 7.0 mi Calm Calm - N/A   Clear
9:53 AM 73.4 °F - 68.0 °F 83% 29.97 in 10.0 mi Calm Calm - N/A   Clear
10:14 AM 73.4 °F - 66.2 °F 78% 29.99 in 10.0 mi Calm Calm - N/A   Clear
10:34 AM 75.2 °F - 68.0 °F 78% 29.99 in 10.0 mi Calm Calm - N/A   Scattered Clouds
10:54 AM 75.2 °F - 68.0 °F 78% 30.00 in 10.0 mi Calm Calm - N/A   Scattered Clouds
11:14 AM 75.2 °F - 69.8 °F 83% 30.00 in 10.0 mi Calm Calm - N/A   Mostly Cloudy
11:34 AM 75.2 °F - 69.8 °F 83% 30.01 in 7.0 mi WSW 4.6 mph - N/A   Overcast
11:54 AM 75.2 °F - 69.8 °F 83% 30.00 in 5.0 mi SW 4.6 mph - N/A   Haze
12:14 PM 78.8 °F - 69.8 °F 74% 30.00 in 7.0 mi West 3.5 mph - N/A   Scattered Clouds
12:34 PM 77.0 °F - 69.8 °F 78% 29.99 in 7.0 mi Calm Calm - N/A   Mostly Cloudy
12:54 PM 77.0 °F - 69.8 °F 78% 29.99 in 7.0 mi WNW 3.5 mph - N/A   Overcast
1:14 PM 77.0 °F - 69.8 °F 78% 29.98 in 7.0 mi Calm Calm - N/A   Mostly Cloudy
1:35 PM 78.8 °F - 71.6 °F 78% 29.97 in 7.0 mi Calm Calm - N/A   Scattered Clouds
1:55 PM 78.8 °F - 69.8 °F 74% 29.97 in 7.0 mi Calm Calm - N/A   Scattered Clouds
2:15 PM 78.8 °F - 71.6 °F 78% 29.97 in 10.0 mi SSE 8.1 mph - N/A   Mostly Cloudy
2:30 PM 77.0 °F - 71.6 °F 83% 29.97 in 10.0 mi SSE 4.6 mph - N/A   Mostly Cloudy
2:50 PM 78.8 °F - 71.6 °F 78% 29.96 in 10.0 mi SE 4.6 mph - N/A   Scattered Clouds
3:10 PM 80.6 °F 84.6 °F 71.6 °F 74% 29.95 in 10.0 mi Calm Calm - N/A   Clear
3:30 PM 80.6 °F 84.6 °F 71.6 °F 74% 29.95 in 10.0 mi Calm Calm - N/A   Clear
3:50 PM 80.6 °F 83.9 °F 69.8 °F 70% 29.95 in 10.0 mi WSW 8.1 mph - N/A   Scattered Clouds
4:10 PM 82.4 °F 86.3 °F 69.8 °F 66% 29.95 in 10.0 mi WSW 8.1 mph - N/A   Scattered Clouds
4:30 PM 82.4 °F 86.3 °F 69.8 °F 66% 29.95 in 10.0 mi SW 9.2 mph - N/A   Clear
4:51 PM 80.6 °F 83.9 °F 69.8 °F 70% 29.95 in 10.0 mi WSW 6.9 mph - N/A   Scattered Clouds
5:11 PM 80.6 °F 83.9 °F 69.8 °F 70% 29.95 in 10.0 mi WSW 6.9 mph - N/A   Mostly Cloudy
5:31 PM 80.6 °F 83.9 °F 69.8 °F 70% 29.95 in 10.0 mi WSW 11.5 mph - N/A   Scattered Clouds
5:51 PM 78.8 °F - 69.8 °F 74% 29.96 in 10.0 mi SW 12.7 mph - N/A   Scattered Clouds
6:11 PM 78.8 °F - 69.8 °F 74% 29.95 in 10.0 mi SW 8.1 mph - N/A   Scattered Clouds
6:31 PM 78.8 °F - 69.8 °F 74% 29.95 in 10.0 mi WSW 6.9 mph - N/A   Scattered Clouds
6:50 PM 78.8 °F - 71.6 °F 78% 29.94 in 10.0 mi WSW 5.8 mph - N/A Rain Light Rain
7:11 PM 78.8 °F - 69.8 °F 74% 29.94 in 10.0 mi SW 3.5 mph - N/A   Light Drizzle
7:24 PM 77.0 °F - 69.8 °F 78% 29.94 in 10.0 mi WSW 5.8 mph - N/A Rain Light Rain
7:51 PM 77.0 °F - 69.8 °F 78% 29.94 in 10.0 mi SW 5.8 mph - N/A   Clear
8:12 PM 77.0 °F - 69.8 °F 78% 29.95 in 10.0 mi WSW 5.8 mph - N/A   Clear
8:32 PM 75.2 °F - 69.8 °F 83% 29.96 in 10.0 mi SW 4.6 mph - N/A   Scattered Clouds
8:54 PM 75.2 °F - 69.8 °F 83% 29.95 in 10.0 mi SW 6.9 mph - N/A   Scattered Clouds
9:14 PM 75.2 °F - 69.8 °F 83% 29.96 in 10.0 mi WSW 4.6 mph - N/A   Mostly Cloudy
9:34 PM 75.2 °F - 69.8 °F 83% 29.97 in 10.0 mi WSW 3.5 mph - N/A   Mostly Cloudy
9:54 PM 75.2 °F - 69.8 °F 83% 29.96 in 10.0 mi Calm Calm - N/A   Scattered Clouds
10:14 PM 73.4 °F - 69.8 °F 88% 29.95 in 10.0 mi Calm Calm - N/A   Scattered Clouds
10:34 PM 73.4 °F - 69.8 °F 88% 29.96 in 10.0 mi SW 3.5 mph - N/A   Mostly Cloudy
10:54 PM 73.4 °F - 69.8 °F 88% 29.97 in 10.0 mi WSW 3.5 mph - N/A Rain Light Rain
11:15 PM 73.4 °F - 69.8 °F 88% 29.97 in 10.0 mi WSW 3.5 mph - N/A   Overcast
11:35 PM 73.4 °F - 69.8 °F 88% 29.97 in 10.0 mi Calm Calm - N/A   Mostly Cloudy
11:55 PM 73.4 °F - 69.8 °F 88% 29.97 in 10.0 mi SW 3.5 mph - N/A   Mostly Cloudy